Simultaneous Nadir Overpasses (SNOs) Predictions

Prediction of SNOs between NOAA-20 and METOP-B Satellite Orbit:

Table of predicted SNOs for the next 14.0 days since TLE Epoch: 5/29/2021
Index Date (NOAA-20) Time (NOAA-20) Lat,Lon (NOAA-20) SZA (NOAA-20 ) Date (METOP-B) Time (METOP-B) Lat,Lon (METOP-B) SZA (METOP-B ) Distance(km) Time Diff (sec)
1 06/02/2021 04:26:59 73.49, 103.47 51.44 06/02/2021 04:28:05 73.44, 106.42 51.25 93.69 66
2 06/02/2021 05:17:42 -73.44, -89.10 128.63 06/02/2021 05:18:49 -73.36, -86.45 128.84 84.65 67
3 06/02/2021 06:08:23 73.19, 78.76 51.11 06/02/2021 06:09:33 73.12, 80.37 50.95 52.58 70
4 06/02/2021 06:59:06 -73.14,-113.82 128.96 06/02/2021 07:00:16 -73.09,-112.38 129.09 46.65 70
5 06/02/2021 07:49:47 72.89, 54.02 50.77 06/02/2021 07:51:00 72.85, 54.45 50.69 14.73 73
6 06/02/2021 08:40:30 -72.84,-138.55 129.29 06/02/2021 08:41:43 -72.82,-138.30 129.35 8.89 73
7 06/02/2021 09:31:14 72.75, 28.96 50.60 06/02/2021 09:32:23 72.78, 28.96 50.62 3.71 69
8 06/02/2021 10:21:58 -72.75,-163.73 129.41 06/02/2021 10:23:06 -72.75,-163.79 129.42 1.95 68
9 06/02/2021 11:12:43 72.75, 3.57 50.60 06/02/2021 11:13:44 72.76, 3.58 50.59 1.10 61
10 06/02/2021 12:03:27 -72.75, 170.89 129.41 06/02/2021 12:04:27 -72.73, 170.84 129.45 3.28 60
11 06/02/2021 12:54:13 72.75, -21.81 50.59 06/02/2021 12:55:06 72.74, -21.80 50.57 1.58 53
12 06/02/2021 13:44:57 -72.76, 145.51 129.42 06/02/2021 13:45:48 -72.76, 145.56 129.43 1.80 51
13 06/02/2021 14:35:42 72.71, -47.09 50.53 06/02/2021 14:36:28 72.72, -47.18 50.54 3.35 46
14 06/02/2021 15:26:27 -72.76, 120.12 129.42 06/02/2021 15:27:10 -72.74, 120.18 129.45 2.98 43
15 06/02/2021 16:17:12 72.71, -72.47 50.53 06/02/2021 16:17:50 72.70, -72.56 50.52 3.10 38
16 06/02/2021 17:07:56 -72.71, 94.84 129.48 06/02/2021 17:08:32 -72.72, 94.80 129.48 1.60 36
17 06/02/2021 17:58:42 72.72, -97.85 50.53 06/02/2021 17:59:11 72.73, -97.83 50.53 2.00 29
18 06/02/2021 18:49:26 -72.72, 69.46 129.48 06/02/2021 18:49:54 -72.70, 69.42 129.50 2.26 28
19 06/02/2021 19:40:12 72.72,-123.24 50.52 06/02/2021 19:40:33 72.71,-123.21 50.51 1.14 21
20 06/02/2021 20:30:56 -72.72, 44.08 129.49 06/02/2021 20:31:15 -72.73, 44.15 129.48 2.59 19
21 06/02/2021 21:21:41 72.67,-148.52 50.46 06/02/2021 21:21:55 72.70,-148.59 50.48 3.35 14
22 06/02/2021 22:12:26 -72.73, 18.69 129.49 06/02/2021 22:12:37 -72.71, 18.77 129.51 2.82 11
23 06/02/2021 23:03:11 72.68,-173.90 50.46 06/02/2021 23:03:17 72.68,-173.97 50.46 2.39 6
24 06/02/2021 23:53:55 -72.68, -6.58 129.55 06/02/2021 23:53:59 -72.69, -6.61 129.53 1.83 4
25 06/03/2021 00:44:41 72.68, 160.72 50.45 06/03/2021 00:44:38 72.71, 160.75 50.48 2.91 3
26 06/03/2021 01:35:25 -72.68, -31.97 129.55 06/03/2021 01:35:21 -72.67, -31.99 129.56 1.23 4
27 06/03/2021 02:26:11 72.69, 135.33 50.45 06/03/2021 02:26:00 72.69, 135.37 50.45 1.37 11
28 06/03/2021 03:16:55 -72.69, -57.35 129.56 06/03/2021 03:16:42 -72.71, -57.26 129.54 3.51 13
29 06/03/2021 04:07:41 72.69, 109.95 50.45 06/03/2021 04:07:22 72.67, 109.99 50.43 3.03 19
30 06/03/2021 04:58:25 -72.69, -82.73 129.56 06/03/2021 04:58:04 -72.69, -82.64 129.57 3.04 21
31 06/03/2021 05:49:10 72.65, 84.67 50.39 06/03/2021 05:48:44 72.65, 84.61 50.40 1.86 26
32 06/03/2021 06:39:54 -72.65,-108.01 129.62 06/03/2021 06:39:26 -72.67,-108.02 129.59 2.50 28
33 06/03/2021 07:30:40 72.65, 59.29 50.38 06/03/2021 07:30:06 72.63, 59.24 50.37 2.82 34
34 06/03/2021 08:21:24 -72.65,-133.40 129.62 06/03/2021 08:20:48 -72.65,-133.40 129.62 0.21 36
35 06/03/2021 09:12:10 72.65, 33.90 50.38 06/03/2021 09:11:27 72.66, 33.96 50.39 2.05 43
36 06/03/2021 10:02:54 -72.65,-158.78 129.63 06/03/2021 10:02:10 -72.63,-158.78 129.64 2.72 44
37 06/03/2021 10:53:40 72.66, 8.52 50.38 06/03/2021 10:52:49 72.64, 8.58 50.37 2.76 51
38 06/03/2021 11:44:23 -72.61, 175.94 129.69 06/03/2021 11:43:32 -72.61, 175.84 129.67 3.34 51
39 06/03/2021 12:35:09 72.61, -16.76 50.32 06/03/2021 12:34:11 72.62, -16.80 50.34 1.72 58
40 06/03/2021 13:25:53 -72.61, 150.56 129.69 06/03/2021 13:24:53 -72.64, 150.56 129.65 3.36 60
41 06/03/2021 14:16:39 72.62, -42.14 50.32 06/03/2021 14:15:33 72.60, -42.18 50.32 1.87 66
42 06/03/2021 15:07:23 -72.62, 125.17 129.69 06/03/2021 15:06:15 -72.62, 125.19 129.67 0.84 68
43 06/03/2021 15:58:09 72.62, -67.53 50.31 06/03/2021 15:56:54 72.64, -67.45 50.34 2.89 75
44 06/03/2021 16:48:52 -72.57, 99.89 129.75 06/03/2021 16:47:37 -72.60, 99.81 129.70 4.75 75
45 06/03/2021 17:39:33 72.32, -92.30 49.98 06/03/2021 17:38:22 72.31, -93.45 50.04 38.81 71
46 06/03/2021 18:30:16 -72.27, 75.12 130.08 06/03/2021 18:29:05 -72.28, 73.82 130.00 43.96 71
47 06/03/2021 19:20:57 72.02,-117.09 49.64 06/03/2021 19:19:49 72.03,-119.32 49.79 76.63 68
48 06/03/2021 20:11:40 -71.97, 50.32 130.42 06/03/2021 20:10:32 -72.00, 47.95 130.25 81.69 68



Historial Predications of SNOs between NOAA-20 and METOP-B
